Regional Weather Roundup
Issued by NWS Charleston, SC

Current Version | Previous Version | Text Only | Print | Product List | Glossary Off
Versions: 1 2 3 4 5 6 7 8 9 10 11 12 13 14 15 16 17 18 19 20 21 22 23 24 25 26 27 28 29 30 31 32 33 34 35 36 37 38 39 40 41 42 43 44 45 46 47 48 49 50

000
ASUS42 KCHS 251212
RWRCHS

REGIONAL WEATHER ROUNDUP
NATIONAL WEATHER SERVICE CHARLESTON SC
800 AM EDT TUE APR 25 2017

NOTE: "FAIR" INDICATES FEW OR NO CLOUDS BELOW 12,000 FEET WITH NO
SIGNIFICANT WEATHER AND/OR OBSTRUCTIONS TO VISIBILITY.

NOT ALL STATIONS ARE QUALITY CONTROLLED. USE DATA WITH CAUTION...
ESPECIALLY DEWPOINT OBSERVATIONS.

SCZ027-030-031-034>040-042>050-251300-
...SOUTHEAST SOUTH CAROLINA...

CITY           SKY/WX    TMP DP  RH WIND       PRES   REMARKS
N CHARLESTON   CLOUDY    59  57  93 W8        29.68R FOG
6HR MIN TEMP:  58; 6HR MAX TEMP:  61; 6HR PCP: TRACE;

WATERFRONT PRK   N/A     59  59 100 W5        29.67R
JOHNS ISLAND   PTSUNNY   61  59  94 W7        29.69R
PINOPOLIS        N/A     59  57  94 W15       29.58R
MONCKS CORNER  CLOUDY    55  55 100 CALM      29.68R FOG
SUMMERVILLE    CLOUDY    57  55  94 W7        29.71R
BEAUFORT MCAS  LGT RAIN  59  58  96 NW9       29.71R
6HR MIN TEMP:  59; 6HR MAX TEMP:  61; 6HR PCP:  0.01;

BEAUFORT ARPT  CLOUDY    59  55  88 W10       29.71R
HILTON HEAD IS NOT AVBL
WALTERBORO     DRIZZLE   55  55 100 NW5       29.72R
ALLENDALE      CLOUDY    57  55  94 CALM      29.71R FOG

...SOUTHERN MIDLANDS AND PEE DEE...

CITY           SKY/WX    TMP DP  RH WIND       PRES   REMARKS
GEORGETOWN     CLOUDY    57  55  94 SW9       29.66R
KINGSTREE      RAIN      55  55 100 W7        29.66R
ORANGEBURG     CLOUDY    57  55  93 NW6       29.72R
6HR MIN TEMP:  56; 6HR MAX TEMP:  58; 6HR PCP:  0.06;

BARNWELL       CLOUDY    59  57  94 W5        29.72R
AIKEN          CLOUDY    54  54 100 NW5       29.75R
MANNING        DRZL/FOG  55  54  94 MISG      29.67R VSB 1
COLUMBIA       CLOUDY    58  55  90 NW8       29.70R FOG
6HR MIN TEMP:  57; 6HR MAX TEMP:  58; 6HR PCP: TRACE;

SUMTER         DRZL/FOG  57  55  94 W8        29.66R VSB 7/8
6HR MIN TEMP:  56; 6HR MAX TEMP:  57; 6HR PCP:  0.03;

FLORENCE       CLOUDY    58  58 100 W6        29.63R FOG
6HR MIN TEMP:  56; 6HR MAX TEMP:  58;

MYRTLE BEACH   CLOUDY    59  57  94 W7        29.63R FOG
N MYRTLE BEACH CLOUDY    60  59  96 W6        29.61R
6HR MIN TEMP:  60; 6HR MAX TEMP:  62;


$$

GAZ063-065-086>088-099>101-113>116-118-119-134>141-150-251300-
...SOUTHEAST GEORGIA...

CITY           SKY/WX    TMP DP  RH WIND       PRES   REMARKS
SAVANNAH ARPT  CLOUDY    61  53  75 W12       29.73R
6HR MIN TEMP:  59; 6HR MAX TEMP:  61;

HUNTER AAF     CLOUDY    61  57  88 W14       29.71R
6HR MIN TEMP:  60; 6HR MAX TEMP:  62;

FORT STEWART   CLOUDY    61  55  79 W10       29.72R
6HR MIN TEMP:  60; 6HR MAX TEMP:  61;

STATESBORO     CLOUDY    58  58 100 NW9       29.74R
SYLVANIA       CLOUDY   N/A N/A N/A NW12      29.74R
CLAXTON        CLOUDY    59  59 100 W10       29.74R

...CSRA...CENTRAL AND FAR SOUTHEAST GEORGIA...

CITY           SKY/WX    TMP DP  RH WIND       PRES   REMARKS
THOMSON        CLOUDY    57  55  93 N5        29.79R
AUGUSTA-BUSH   PTSUNNY   61  55  81 NW12      29.72R
6HR MIN TEMP:  59; 6HR MAX TEMP:  61;

AUGUSTA-DANIEL CLOUDY    58  53  84 VRB7G17   29.73R
SWAINSBORO     CLOUDY    59  55  88 NW6       29.76R
VIDALIA        CLOUDY    61  55  82 NW9       29.76R
EASTMAN        CLOUDY    60  60 100 CALM      29.79R
HAZLEHURST     CLOUDY    62  61  97 CALM      29.75R
ALMA           MOSUNNY   58  57  97 W5        29.76R
6HR MIN TEMP:  57; 6HR MAX TEMP:  59;

WAYCROSS       MOSUNNY   61  61 100 W6        29.77R
JESUP          PTSUNNY   61  55  82 W3        29.76R
BAXLEY         CLOUDY    61  61 100 NW8       29.76R
BRUNSWICK      PTSUNNY   59  57  94 W7        29.75S
SAINT SIMONS   HVY RAIN  60  55  83 W12       29.74R
6HR MIN TEMP:  60; 6HR MAX TEMP:  62;


$$

SCZ027-028-034-036>038-045-046-048>050-GAZ119-141-251300-
...LAKE AND SUPPLEMENTAL COASTAL OBSERVATIONS...

STATION/POSITION TIME  TEMP    WIND        PRES    WAVE   SWELL
                       AIR SEA DIR/SP/G            HT/PER HT/PER/DIR
                 (UTC) (F)     (DEG/KT/KT) (MB)    (FT/S) (FT/S/D)
WINYAH BAY       1045   59     270/  6     1003.0
LAKE MURRAY      1120   56     300/  6/  9 1004.7
ACE BASIN NERRS  NOT AVBL
FORT PULASKI     1148   62 73  290/ 19/ 23 1006.6R
SAPELO ISLAND    1100   60     280/  9     1006.0

$$

ANZ835-935-AMZ111-154-330-350-352-354-370-450-454-472-251300-
...C-MAN AND BUOY OBSERVATIONS...

STATION/POSITION TIME  TEMP    WIND        PRES    WAVE   SWELL
                       AIR SEA DIR/SP/G            HT/PER HT/PER/DIR
                 (UTC) (F)     (DEG/KT/KT) (MB)    (FT/S) (FT/S/D)
BUOY 41004       1150   66 72  270/ 17/ 21 1003.9R   7/10   5/100/10
BUOY 41008       1150   63 71  270/ 17/ 21 1006.2R   4/ 4   2/ 60/12
FOLLY BEACH CMAN 1100   60     260/  9/ 12 1005.1R
CAPERS NEARSHORE 1108   63 71  290/ 14/ 19 1003.6R
FRIPP NEARSHORE  1108   62 70  300/ 16/ 19 1004.8R


STATION/POSITION TIME  TEMP    WIND        PRES    WAVE   SWELL
                       AIR SEA DIR/SP/G            HT/PER HT/PER/DIR
                 (UTC) (F)     (DEG/KT/KT) (MB)    (FT/S) (FT/S/D)
5E ST. MARYS GA  1130      72                N/A     3/10   2/ 90/11
FRYING PAN BUOY  1150   68 74  250/ 19/ 23 1002.6R   8/ 8   7/110/ 8
BUOY 41025       1150   73 77  190/ 17/ 19 1002.8R  12/11  11/130/11
CAPE LOOKOUT NC  1100   66     240/  4/  4 1001.3R
BUOY 41002       1050   71 75  180/ 12/ 14 1004.8    9/10   8/130/10
BUOY 41010       1150   72 78  270/ 17/ 23 1007.8R   7/ 6   5/150/ 8
ST AUGUSTINE FL  1200   60 72  280/  9/ 12 1009.7R


$$




USA.gov is the U.S. government's official web portal to all federal, state and local government web resources and services.